TimeMDT,TemperatureF,Dew PointF,Humidity,Sea Level PressureIn,VisibilityMPH,Wind Direction,Wind SpeedMPH,Gust SpeedMPH,PrecipitationIn,Events,Conditions,WindDirDegrees,DateUTC
12:15 AM,73.4,68.0,83,29.76,10.0,East,11.5,-,N/A,,Clear,90,2013-06-25 06:15:00
12:35 AM,72.9,68.0,85,29.76,10.0,ENE,9.2,-,N/A,,Clear,70,2013-06-25 06:35:00
12:55 AM,72.9,67.6,84,29.74,10.0,NE,8.1,-,N/A,,Clear,40,2013-06-25 06:55:00
1:15 AM,72.1,67.5,85,29.73,10.0,East,6.9,-,N/A,,Clear,90,2013-06-25 07:15:00
1:35 AM,71.6,67.5,87,29.73,10.0,East,9.2,-,N/A,,Clear,100,2013-06-25 07:35:00
1:55 AM,70.7,66.9,88,29.73,10.0,ENE,6.9,-,N/A,,Clear,70,2013-06-25 07:55:00
2:15 AM,70.7,66.9,88,29.73,10.0,ENE,5.8,-,N/A,,Clear,60,2013-06-25 08:15:00
2:35 AM,70.0,66.7,89,29.72,10.0,NE,4.6,-,N/A,,Clear,50,2013-06-25 08:35:00
2:55 AM,69.8,66.6,89,29.72,10.0,East,5.8,-,N/A,,Clear,80,2013-06-25 08:55:00
3:15 AM,69.1,66.4,91,29.71,7.0,East,6.9,-,N/A,,Clear,100,2013-06-25 09:15:00
3:35 AM,68.9,66.2,91,29.71,7.0,East,9.2,-,N/A,,Clear,100,2013-06-25 09:35:00
3:55 AM,68.7,66.2,92,29.71,7.0,ESE,6.9,-,N/A,,Clear,110,2013-06-25 09:55:00
4:15 AM,67.6,65.5,93,29.72,7.0,East,6.9,-,N/A,,Clear,90,2013-06-25 10:15:00
4:35 AM,67.8,64.6,89,29.72,10.0,East,3.5,-,N/A,,Clear,100,2013-06-25 10:35:00
4:55 AM,67.6,64.4,89,29.72,10.0,Calm,Calm,-,N/A,,Clear,0,2013-06-25 10:55:00
5:15 AM,68.0,63.5,85,29.72,10.0,Calm,Calm,-,N/A,,Clear,0,2013-06-25 11:15:00
5:35 AM,67.3,63.5,88,29.72,10.0,Calm,Calm,-,N/A,,Clear,0,2013-06-25 11:35:00
5:55 AM,66.6,63.5,90,29.73,10.0,West,3.5,-,N/A,,Clear,280,2013-06-25 11:55:00
6:15 AM,66.6,63.7,90,29.73,10.0,Calm,Calm,-,N/A,,Clear,0,2013-06-25 12:15:00
6:35 AM,67.5,64.0,89,29.73,10.0,Calm,Calm,-,N/A,,Clear,0,2013-06-25 12:35:00
6:55 AM,68.9,64.4,86,29.74,10.0,Calm,Calm,-,N/A,,Clear,0,2013-06-25 12:55:00
7:15 AM,69.4,64.6,84,29.76,10.0,NNW,3.5,-,N/A,,Clear,340,2013-06-25 13:15:00
7:35 AM,70.5,65.1,83,29.76,10.0,NNW,3.5,-,N/A,,Clear,340,2013-06-25 13:35:00
7:55 AM,72.5,63.3,73,29.77,10.0,Calm,Calm,-,N/A,,Clear,0,2013-06-25 13:55:00
8:15 AM,73.9,63.9,71,29.77,10.0,Calm,Calm,-,N/A,,Clear,0,2013-06-25 14:15:00
8:35 AM,74.3,65.5,74,29.78,10.0,NW,4.6,-,N/A,,Clear,320,2013-06-25 14:35:00
8:55 AM,74.8,67.1,77,29.79,10.0,NW,4.6,-,N/A,,Clear,310,2013-06-25 14:55:00
9:15 AM,77.7,68.2,72,29.79,10.0,NW,9.2,-,N/A,,Clear,310,2013-06-25 15:15:00
9:35 AM,80.8,66.6,62,29.79,10.0,NW,11.5,-,N/A,,Clear,310,2013-06-25 15:35:00
9:55 AM,80.6,65.5,60,29.80,10.0,NW,12.7,-,N/A,,Clear,310,2013-06-25 15:55:00
10:15 AM,81.3,64.4,56,29.81,10.0,NNW,12.7,-,N/A,,Clear,330,2013-06-25 16:15:00
10:35 AM,81.7,62.6,52,29.81,10.0,NNW,16.1,-,N/A,,Clear,330,2013-06-25 16:35:00
10:55 AM,83.7,61.5,47,29.81,10.0,NNW,16.1,21.9,N/A,,Clear,340,2013-06-25 16:55:00
11:15 AM,85.8,55.8,36,29.81,10.0,NNW,17.3,23.0,N/A,,Clear,330,2013-06-25 17:15:00
11:35 AM,86.5,54.5,33,29.82,10.0,NNW,18.4,21.9,N/A,,Clear,340,2013-06-25 17:35:00
11:55 AM,88.0,48.2,25,29.81,10.0,NW,19.6,27.6,N/A,,Clear,320,2013-06-25 17:55:00
12:15 PM,88.3,44.8,22,29.82,10.0,NW,23.0,31.1,N/A,,Clear,310,2013-06-25 18:15:00
12:35 PM,89.6,42.3,19,29.81,10.0,NW,25.3,31.1,N/A,,Clear,320,2013-06-25 18:35:00
12:55 PM,90.1,40.6,18,29.82,10.0,WNW,20.7,32.2,N/A,,Clear,300,2013-06-25 18:55:00
1:15 PM,90.7,42.3,18,29.82,10.0,WNW,15.0,26.5,N/A,,Clear,300,2013-06-25 19:15:00
1:35 PM,90.7,44.8,20,29.81,10.0,NW,18.4,26.5,N/A,,Clear,320,2013-06-25 19:35:00
1:55 PM,90.9,44.4,20,29.82,10.0,WNW,15.0,24.2,N/A,,Clear,300,2013-06-25 19:55:00
2:15 PM,91.4,45.3,20,29.81,10.0,NW,15.0,-,N/A,,Clear,310,2013-06-25 20:15:00
2:35 PM,91.9,44.1,19,29.81,10.0,NNW,16.1,25.3,N/A,,Clear,330,2013-06-25 20:35:00
2:55 PM,92.3,43.2,18,29.81,10.0,WNW,18.4,26.5,N/A,,Clear,290,2013-06-25 20:55:00
3:15 PM,92.7,43.3,18,29.81,10.0,NW,18.4,23.0,N/A,,Clear,320,2013-06-25 21:15:00
3:26 PM,93.2,42.8,17,29.81,10.0,NW,18.4,23.0,N/A,,Clear,320,2013-06-25 21:26:00
3:35 PM,92.8,43.0,18,29.81,10.0,NW,17.3,24.2,N/A,,Clear,320,2013-06-25 21:35:00
3:55 PM,93.2,43.9,18,29.80,10.0,NW,15.0,21.9,N/A,,Clear,310,2013-06-25 21:55:00
4:15 PM,93.0,44.8,19,29.81,10.0,NNW,16.1,23.0,N/A,,Clear,330,2013-06-25 22:15:00
4:35 PM,92.3,43.9,19,29.81,10.0,NW,18.4,27.6,N/A,,Clear,320,2013-06-25 22:35:00
4:55 PM,92.3,41.9,17,29.81,10.0,NW,17.3,25.3,N/A,,Clear,320,2013-06-25 22:55:00
5:15 PM,92.1,41.5,17,29.81,10.0,NW,19.6,25.3,N/A,,Clear,320,2013-06-25 23:15:00
5:35 PM,91.4,43.5,19,29.81,10.0,NNW,12.7,-,N/A,,Clear,330,2013-06-25 23:35:00
5:55 PM,91.0,42.3,18,29.82,10.0,NW,16.1,21.9,N/A,,Clear,320,2013-06-25 23:55:00
6:15 PM,90.5,42.8,19,29.82,10.0,NNW,12.7,18.4,N/A,,Clear,330,2013-06-26 00:15:00
6:35 PM,89.6,45.3,21,29.83,10.0,NNW,10.4,-,N/A,,Clear,340,2013-06-26 00:35:00
6:55 PM,88.2,48.4,25,29.83,10.0,NNW,6.9,-,N/A,,Clear,340,2013-06-26 00:55:00
7:15 PM,86.7,50.0,28,29.83,10.0,North,6.9,-,N/A,,Clear,360,2013-06-26 01:15:00
7:35 PM,83.5,52.7,34,29.84,10.0,North,6.9,-,N/A,,Clear,360,2013-06-26 01:35:00
7:55 PM,79.7,56.3,44,29.84,10.0,North,5.8,-,N/A,,Clear,10,2013-06-26 01:55:00
8:15 PM,76.5,57.2,51,29.84,10.0,Calm,Calm,-,N/A,,Clear,0,2013-06-26 02:15:00
8:35 PM,75.7,56.5,51,29.84,10.0,Calm,Calm,-,N/A,,Clear,0,2013-06-26 02:35:00
8:55 PM,74.1,56.5,54,29.86,10.0,Calm,Calm,-,N/A,,Clear,0,2013-06-26 02:55:00
9:15 PM,69.4,57.2,65,29.87,10.0,Calm,Calm,-,N/A,,Clear,0,2013-06-26 03:15:00
9:35 PM,68.9,56.8,65,29.87,10.0,North,4.6,-,N/A,,Clear,360,2013-06-26 03:35:00
9:55 PM,67.5,58.5,73,29.88,10.0,Calm,Calm,-,N/A,,Clear,0,2013-06-26 03:55:00
10:15 PM,67.3,58.1,72,29.89,10.0,Calm,Calm,-,N/A,,Clear,0,2013-06-26 04:15:00
10:35 PM,65.7,58.3,77,29.89,10.0,Calm,Calm,-,N/A,,Clear,0,2013-06-26 04:35:00
10:55 PM,63.7,57.4,80,29.89,10.0,NW,3.5,-,N/A,,Clear,310,2013-06-26 04:55:00
11:15 PM,64.6,56.3,74,29.90,10.0,Calm,Calm,-,N/A,,Clear,0,2013-06-26 05:15:00
11:35 PM,63.5,56.3,77,29.90,10.0,Calm,Calm,-,N/A,,Clear,0,2013-06-26 05:35:00
11:55 PM,63.5,56.3,77,29.90,10.0,Calm,Calm,-,N/A,,Clear,0,2013-06-26 05:55:00